Time,TemperatureF,DewpointF,PressureIn,WindDirection,WindDirectionDegrees,WindSpeedMPH,WindSpeedGustMPH,Humidity,HourlyPrecipIn,Conditions,Clouds,dailyrainin,SoftwareType,DateUTC
2013-03-30 00:00:00,65.2,15.1,27.43,ESE,113,0.7,1.3,15,0.00,,,0.00,WUHU216HW,2013-03-30 07:00:00,
2013-03-30 00:05:00,65.0,15.0,27.43,ESE,113,0.4,1.6,15,0.00,,,0.00,WUHU216HW,2013-03-30 07:05:00,
2013-03-30 00:10:00,64.8,14.9,27.43,ESE,113,0.2,1.6,15,0.00,,,0.00,WUHU216HW,2013-03-30 07:10:00,
2013-03-30 00:15:00,64.6,14.8,27.43,ESE,113,0.4,1.1,15,0.00,,,0.00,WUHU216HW,2013-03-30 07:15:00,
2013-03-30 00:20:00,64.6,16.3,27.43,ESE,113,0.4,0.9,16,0.00,,,0.00,WUHU216HW,2013-03-30 07:20:00,
2013-03-30 00:25:00,64.4,16.2,27.43,ESE,113,0.4,0.9,16,0.00,,,0.00,WUHU216HW,2013-03-30 07:25:00,
2013-03-30 00:30:00,64.4,16.2,27.43,ESE,113,0.4,0.9,16,0.00,,,0.00,WUHU216HW,2013-03-30 07:30:00,
2013-03-30 00:35:00,64.4,16.2,27.43,ESE,113,0.0,0.7,16,0.00,,,0.00,WUHU216HW,2013-03-30 07:35:00,
2013-03-30 00:40:00,64.3,16.0,27.43,ESE,113,0.4,1.1,16,0.00,,,0.00,WUHU216HW,2013-03-30 07:40:00,
2013-03-30 00:45:00,64.1,15.9,27.43,ESE,113,0.7,1.1,16,0.00,,,0.00,WUHU216HW,2013-03-30 07:45:00,
2013-03-30 00:50:00,63.9,15.8,27.43,ESE,113,0.4,1.1,16,0.00,,,0.00,WUHU216HW,2013-03-30 07:50:00,
2013-03-30 00:55:00,63.7,15.7,27.43,ESE,113,0.7,1.1,16,0.00,,,0.00,WUHU216HW,2013-03-30 07:55:00,
2013-03-30 01:00:00,63.5,15.5,27.43,ESE,113,1.1,1.1,16,0.00,,,0.00,WUHU216HW,2013-03-30 08:00:00,
2013-03-30 01:05:00,63.4,15.3,27.43,ESE,113,0.4,1.3,16,0.00,,,0.00,WUHU216HW,2013-03-30 08:05:00,
2013-03-30 01:10:00,63.2,15.2,27.43,East,90,0.7,1.8,16,0.00,,,0.00,WUHU216HW,2013-03-30 08:10:00,
2013-03-30 01:15:00,63.0,15.0,27.42,East,90,0.4,1.8,16,0.00,,,0.00,WUHU216HW,2013-03-30 08:15:00,
2013-03-30 01:20:00,63.0,15.0,27.42,East,90,0.7,1.1,16,0.00,,,0.00,WUHU216HW,2013-03-30 08:20:00,
2013-03-30 01:25:00,62.8,15.0,27.42,ESE,113,0.7,1.8,16,0.00,,,0.00,WUHU216HW,2013-03-30 08:25:00,
2013-03-30 01:30:00,62.6,16.4,27.42,ESE,113,0.4,1.8,17,0.00,,,0.00,WUHU216HW,2013-03-30 08:30:00,
2013-03-30 01:35:00,62.5,16.2,27.42,ESE,113,0.2,2.0,17,0.00,,,0.00,WUHU216HW,2013-03-30 08:35:00,
2013-03-30 01:40:00,62.3,16.1,27.43,East,90,0.9,2.0,17,0.00,,,0.00,WUHU216HW,2013-03-30 08:40:00,
2013-03-30 01:45:00,62.1,15.9,27.43,SE,135,0.7,1.3,17,0.00,,,0.00,WUHU216HW,2013-03-30 08:45:00,
2013-03-30 01:50:00,61.7,15.7,27.43,ESE,113,2.0,2.0,17,0.00,,,0.00,WUHU216HW,2013-03-30 08:50:00,
2013-03-30 01:55:00,61.7,15.7,27.43,ESE,113,1.1,2.0,17,0.00,,,0.00,WUHU216HW,2013-03-30 08:55:00,
2013-03-30 02:00:00,61.6,15.5,27.43,ESE,113,1.1,1.8,17,0.00,,,0.00,WUHU216HW,2013-03-30 09:00:00,
2013-03-30 02:05:00,61.4,15.4,27.43,ENE,68,0.7,1.6,17,0.00,,,0.00,WUHU216HW,2013-03-30 09:05:00,
2013-03-30 02:10:00,61.4,15.4,27.42,ESE,113,0.4,1.6,17,0.00,,,0.00,WUHU216HW,2013-03-30 09:10:00,
2013-03-30 02:15:00,61.2,15.2,27.42,ESE,113,0.0,1.6,17,0.00,,,0.00,WUHU216HW,2013-03-30 09:15:00,
2013-03-30 02:20:00,61.0,16.7,27.43,East,90,0.0,1.1,18,0.00,,,0.00,WUHU216HW,2013-03-30 09:20:00,
2013-03-30 02:25:00,61.0,16.7,27.42,ESE,113,0.0,1.1,18,0.00,,,0.00,WUHU216HW,2013-03-30 09:25:00,
2013-03-30 02:30:00,60.8,16.5,27.42,ENE,68,0.0,1.1,18,0.00,,,0.00,WUHU216HW,2013-03-30 09:30:00,
2013-03-30 02:34:00,60.8,16.5,27.42,ENE,68,1.3,2.0,18,0.00,,,0.00,WUHU216HW,2013-03-30 09:34:00,
2013-03-30 02:39:00,60.7,16.3,27.41,ENE,68,1.1,2.0,18,0.00,,,0.00,WUHU216HW,2013-03-30 09:39:00,
2013-03-30 02:44:00,60.5,16.2,27.41,ENE,68,1.8,1.8,18,0.00,,,0.00,WUHU216HW,2013-03-30 09:44:00,
2013-03-30 02:49:00,60.5,16.2,27.41,East,90,0.4,1.8,18,0.00,,,0.00,WUHU216HW,2013-03-30 09:49:00,
2013-03-30 02:54:00,60.3,17.6,27.41,ESE,113,0.7,1.8,19,0.00,,,0.00,WUHU216HW,2013-03-30 09:54:00,
2013-03-30 02:59:00,60.3,17.6,27.41,ESE,113,0.0,1.1,19,0.00,,,0.00,WUHU216HW,2013-03-30 09:59:00,
2013-03-30 03:04:00,60.1,17.4,27.41,East,90,0.4,1.3,19,0.00,,,0.00,WUHU216HW,2013-03-30 10:04:00,
2013-03-30 03:09:00,60.1,17.4,27.41,ESE,113,0.2,1.3,19,0.00,,,0.00,WUHU216HW,2013-03-30 10:09:00,
2013-03-30 03:14:00,60.1,17.4,27.41,ESE,113,0.4,2.0,19,0.00,,,0.00,WUHU216HW,2013-03-30 10:14:00,
2013-03-30 03:19:00,59.9,17.3,27.41,SE,135,0.9,2.0,19,0.00,,,0.00,WUHU216HW,2013-03-30 10:19:00,
2013-03-30 03:24:00,59.9,17.3,27.41,ESE,113,0.4,1.8,19,0.00,,,0.00,WUHU216HW,2013-03-30 10:24:00,
2013-03-30 03:29:00,59.8,17.1,27.41,East,90,0.4,1.3,19,0.00,,,0.00,WUHU216HW,2013-03-30 10:29:00,
2013-03-30 03:34:00,59.8,17.1,27.41,ESE,113,0.0,1.3,19,0.00,,,0.00,WUHU216HW,2013-03-30 10:34:00,
2013-03-30 03:39:00,59.6,16.9,27.41,ESE,113,0.4,1.3,19,0.00,,,0.00,WUHU216HW,2013-03-30 10:39:00,
2013-03-30 03:44:00,59.4,16.7,27.41,ESE,113,0.4,1.3,19,0.00,,,0.00,WUHU216HW,2013-03-30 10:44:00,
2013-03-30 03:49:00,59.2,16.7,27.41,ESE,113,0.0,1.1,19,0.00,,,0.00,WUHU216HW,2013-03-30 10:49:00,
2013-03-30 03:54:00,59.2,16.7,27.41,ESE,113,1.1,2.0,19,0.00,,,0.00,WUHU216HW,2013-03-30 10:54:00,
2013-03-30 03:59:00,59.2,16.7,27.41,ESE,113,1.1,2.0,19,0.00,,,0.00,WUHU216HW,2013-03-30 10:59:00,
2013-03-30 04:04:00,59.0,16.5,27.41,ESE,113,0.4,1.6,19,0.00,,,0.00,WUHU216HW,2013-03-30 11:04:00,
2013-03-30 04:09:00,59.0,16.5,27.40,ESE,113,0.2,1.1,19,0.00,,,0.00,WUHU216HW,2013-03-30 11:09:00,
2013-03-30 04:14:00,58.9,14.8,27.40,ESE,113,0.2,1.1,18,0.00,,,0.00,WUHU216HW,2013-03-30 11:14:00,
2013-03-30 04:19:00,58.9,16.3,27.40,ESE,113,0.2,1.3,19,0.00,,,0.00,WUHU216HW,2013-03-30 11:19:00,
2013-03-30 04:24:00,59.0,18.0,27.40,ESE,113,0.2,1.3,20,0.00,,,0.00,WUHU216HW,2013-03-30 11:24:00,
2013-03-30 04:29:00,59.2,16.7,27.40,ESE,113,0.4,1.6,19,0.00,,,0.00,WUHU216HW,2013-03-30 11:29:00,
2013-03-30 04:34:00,59.4,18.4,27.40,East,90,1.1,2.0,20,0.00,,,0.00,WUHU216HW,2013-03-30 11:34:00,
2013-03-30 04:39:00,59.6,18.5,27.40,ESE,113,0.9,2.0,20,0.00,,,0.00,WUHU216HW,2013-03-30 11:39:00,
2013-03-30 04:44:00,59.6,18.5,27.40,ESE,113,0.9,1.8,20,0.00,,,0.00,WUHU216HW,2013-03-30 11:44:00,
2013-03-30 04:49:00,59.6,19.4,27.40,ESE,113,0.2,1.8,21,0.00,,,0.00,WUHU216HW,2013-03-30 11:49:00,
2013-03-30 04:54:00,59.8,19.6,27.40,ESE,113,0.7,1.8,21,0.00,,,0.00,WUHU216HW,2013-03-30 11:54:00,
2013-03-30 04:59:00,59.8,18.6,27.40,ESE,113,0.7,2.0,20,0.00,,,0.00,WUHU216HW,2013-03-30 11:59:00,
2013-03-30 05:04:00,59.9,18.8,27.41,SE,135,0.4,2.0,20,0.00,,,0.00,WUHU216HW,2013-03-30 12:04:00,
2013-03-30 05:09:00,59.9,18.8,27.40,ESE,113,0.4,1.6,20,0.00,,,0.00,WUHU216HW,2013-03-30 12:09:00,
2013-03-30 05:14:00,60.1,17.4,27.41,ESE,113,0.9,1.6,19,0.00,,,0.00,WUHU216HW,2013-03-30 12:14:00,
2013-03-30 05:19:00,60.1,19.0,27.40,East,90,0.9,1.6,20,0.00,,,0.00,WUHU216HW,2013-03-30 12:19:00,
2013-03-30 05:24:00,59.9,19.8,27.40,ENE,68,0.2,1.6,21,0.00,,,0.00,WUHU216HW,2013-03-30 12:24:00,
2013-03-30 05:29:00,59.9,19.8,27.40,East,90,1.1,1.8,21,0.00,,,0.00,WUHU216HW,2013-03-30 12:29:00,
2013-03-30 05:34:00,59.8,19.6,27.41,East,90,1.3,2.0,21,0.00,,,0.00,WUHU216HW,2013-03-30 12:34:00,
2013-03-30 05:39:00,59.8,19.6,27.41,ESE,113,1.3,2.0,21,0.00,,,0.00,WUHU216HW,2013-03-30 12:39:00,
2013-03-30 05:44:00,59.8,19.6,27.42,ESE,113,1.1,2.5,21,0.00,,,0.00,WUHU216HW,2013-03-30 12:44:00,
2013-03-30 05:49:00,59.8,19.6,27.42,ESE,113,1.3,2.5,21,0.00,,,0.00,WUHU216HW,2013-03-30 12:49:00,
2013-03-30 05:54:00,59.8,19.6,27.42,East,90,0.2,2.0,21,0.00,,,0.00,WUHU216HW,2013-03-30 12:54:00,
2013-03-30 05:59:00,59.8,19.6,27.41,ESE,113,1.1,1.8,21,0.00,,,0.00,WUHU216HW,2013-03-30 12:59:00,
2013-03-30 06:04:00,59.8,19.6,27.42,ESE,113,0.0,1.8,21,0.00,,,0.00,WUHU216HW,2013-03-30 13:04:00,
2013-03-30 06:09:00,59.6,19.4,27.42,ESE,113,0.9,1.6,21,0.00,,,0.00,WUHU216HW,2013-03-30 13:09:00,
2013-03-30 06:14:00,59.8,19.6,27.42,East,90,1.1,1.6,21,0.00,,,0.00,WUHU216HW,2013-03-30 13:14:00,
2013-03-30 06:19:00,59.9,19.8,27.42,ESE,113,1.1,2.5,21,0.00,,,0.00,WUHU216HW,2013-03-30 13:19:00,
2013-03-30 06:24:00,60.1,19.9,27.42,ESE,113,0.2,2.5,21,0.00,,,0.00,WUHU216HW,2013-03-30 13:24:00,
2013-03-30 06:29:00,60.1,19.9,27.42,ESE,113,0.7,1.8,21,0.00,,,0.00,WUHU216HW,2013-03-30 13:29:00,
2013-03-30 06:34:00,60.3,20.1,27.41,East,90,1.1,2.0,21,0.00,,,0.00,WUHU216HW,2013-03-30 13:34:00,
2013-03-30 06:39:00,60.5,20.3,27.41,NE,45,2.5,3.4,21,0.00,,,0.00,WUHU216HW,2013-03-30 13:39:00,
2013-03-30 06:44:00,60.5,20.3,27.41,ENE,68,3.4,3.4,21,0.00,,,0.00,WUHU216HW,2013-03-30 13:44:00,
2013-03-30 06:49:00,60.3,20.1,27.41,ESE,113,3.6,3.6,21,0.00,,,0.00,WUHU216HW,2013-03-30 13:49:00,
2013-03-30 06:54:00,60.1,19.9,27.41,ENE,68,2.5,3.6,21,0.00,,,0.00,WUHU216HW,2013-03-30 13:54:00,
2013-03-30 06:59:00,60.3,20.1,27.41,East,90,1.8,3.6,21,0.00,,,0.00,WUHU216HW,2013-03-30 13:59:00,
2013-03-30 07:04:00,60.5,20.3,27.41,East,90,1.6,3.6,21,0.00,,,0.00,WUHU216HW,2013-03-30 14:04:00,
2013-03-30 07:09:00,60.8,20.6,27.42,ESE,113,2.5,2.7,21,0.00,,,0.00,WUHU216HW,2013-03-30 14:09:00,
2013-03-30 07:14:00,60.8,20.6,27.42,ESE,113,0.4,2.5,21,0.00,,,0.00,WUHU216HW,2013-03-30 14:14:00,
2013-03-30 07:19:00,61.4,21.0,27.42,SE,135,1.1,3.1,21,0.00,,,0.00,WUHU216HW,2013-03-30 14:19:00,
2013-03-30 07:24:00,61.6,21.2,27.42,ESE,113,0.4,3.4,21,0.00,,,0.00,WUHU216HW,2013-03-30 14:24:00,
2013-03-30 07:29:00,61.9,21.4,27.42,ENE,68,1.8,3.4,21,0.00,,,0.00,WUHU216HW,2013-03-30 14:29:00,
2013-03-30 07:34:00,62.3,20.8,27.42,East,90,1.6,3.4,20,0.00,,,0.00,WUHU216HW,2013-03-30 14:34:00,
2013-03-30 07:39:00,62.6,21.1,27.43,ESE,113,1.3,2.7,20,0.00,,,0.00,WUHU216HW,2013-03-30 14:39:00,
2013-03-30 07:44:00,63.0,19.8,27.42,East,90,0.4,2.7,19,0.00,,,0.00,WUHU216HW,2013-03-30 14:44:00,
2013-03-30 07:49:00,63.5,20.2,27.42,SE,135,1.1,2.2,19,0.00,,,0.00,WUHU216HW,2013-03-30 14:49:00,
2013-03-30 07:54:00,63.7,20.3,27.42,ENE,68,1.8,2.2,19,0.00,,,0.00,WUHU216HW,2013-03-30 14:54:00,
2013-03-30 07:59:00,64.4,20.9,27.42,SE,135,1.8,2.7,19,0.00,,,0.00,WUHU216HW,2013-03-30 14:59:00,
2013-03-30 08:04:00,65.0,19.8,27.42,ESE,113,1.1,3.4,18,0.00,,,0.00,WUHU216HW,2013-03-30 15:04:00,
2013-03-30 08:09:00,65.5,20.2,27.43,SE,135,2.0,3.4,18,0.00,,,0.00,WUHU216HW,2013-03-30 15:09:00,
2013-03-30 08:14:00,65.9,20.5,27.42,SE,135,2.5,3.1,18,0.00,,,0.00,WUHU216HW,2013-03-30 15:14:00,
2013-03-30 08:19:00,66.2,20.8,27.43,ESE,113,1.1,3.1,18,0.00,,,0.00,WUHU216HW,2013-03-30 15:19:00,
2013-03-30 08:24:00,66.8,21.2,27.42,SE,135,1.1,2.7,18,0.00,,,0.00,WUHU216HW,2013-03-30 15:24:00,
2013-03-30 08:29:00,67.3,20.2,27.42,ESE,113,0.4,2.2,17,0.00,,,0.00,WUHU216HW,2013-03-30 15:29:00,
2013-03-30 08:34:00,67.7,20.4,27.43,ENE,68,1.6,2.2,17,0.00,,,0.00,WUHU216HW,2013-03-30 15:34:00,
2013-03-30 08:39:00,68.2,20.9,27.42,SE,135,1.8,3.1,17,0.00,,,0.00,WUHU216HW,2013-03-30 15:39:00,
2013-03-30 08:44:00,68.8,19.7,27.43,East,90,1.1,3.1,16,0.00,,,0.00,WUHU216HW,2013-03-30 15:44:00,
2013-03-30 08:49:00,69.5,20.3,27.42,SE,135,1.1,1.8,16,0.00,,,0.00,WUHU216HW,2013-03-30 15:49:00,
2013-03-30 08:54:00,70.2,20.8,27.42,ESE,113,0.9,2.5,16,0.00,,,0.00,WUHU216HW,2013-03-30 15:54:00,
2013-03-30 08:59:00,70.6,21.1,27.43,SE,135,1.1,2.5,16,0.00,,,0.00,WUHU216HW,2013-03-30 15:59:00,
2013-03-30 09:04:00,71.1,21.5,27.43,ESE,113,1.8,2.5,16,0.00,,,0.00,WUHU216HW,2013-03-30 16:04:00,
2013-03-30 09:09:00,71.6,20.3,27.43,NE,45,0.7,2.5,15,0.00,,,0.00,WUHU216HW,2013-03-30 16:09:00,
2013-03-30 09:14:00,71.8,20.5,27.43,ESE,113,1.3,1.8,15,0.00,,,0.00,WUHU216HW,2013-03-30 16:14:00,
2013-03-30 09:19:00,72.4,21.0,27.42,ESE,113,2.0,2.0,15,0.00,,,0.00,WUHU216HW,2013-03-30 16:19:00,
2013-03-30 09:24:00,72.7,21.2,27.43,ESE,113,1.8,2.0,15,0.00,,,0.00,WUHU216HW,2013-03-30 16:24:00,
2013-03-30 09:29:00,72.9,21.4,27.43,SE,135,1.6,2.2,15,0.00,,,0.00,WUHU216HW,2013-03-30 16:29:00,
2013-03-30 09:34:00,73.1,21.6,27.43,ESE,113,0.2,2.2,15,0.00,,,0.00,WUHU216HW,2013-03-30 16:34:00,
2013-03-30 09:39:00,73.4,20.3,27.43,SSE,158,0.4,1.8,14,0.00,,,0.00,WUHU216HW,2013-03-30 16:39:00,
2013-03-30 09:44:00,73.6,20.3,27.43,SE,135,0.4,1.8,14,0.00,,,0.00,WUHU216HW,2013-03-30 16:44:00,
2013-03-30 09:49:00,74.2,19.1,27.43,North,0,1.1,1.8,13,0.00,,,0.00,WUHU216HW,2013-03-30 16:49:00,
2013-03-30 09:54:00,74.5,19.4,27.43,ESE,113,1.1,1.8,13,0.00,,,0.00,WUHU216HW,2013-03-30 16:54:00,
2013-03-30 09:59:00,75.1,19.8,27.43,ESE,113,0.0,2.2,13,0.00,,,0.00,WUHU216HW,2013-03-30 16:59:00,
2013-03-30 10:04:00,75.4,20.1,27.43,NW,315,0.0,2.2,13,0.00,,,0.00,WUHU216HW,2013-03-30 17:04:00,
2013-03-30 10:09:00,76.1,20.6,27.43,ESE,113,0.2,1.3,13,0.00,,,0.00,WUHU216HW,2013-03-30 17:09:00,
2013-03-30 10:14:00,77.2,21.5,27.43,ENE,68,0.4,1.3,13,0.00,,,0.00,WUHU216HW,2013-03-30 17:14:00,
2013-03-30 10:19:00,77.9,20.3,27.43,NE,45,0.4,2.0,12,0.00,,,0.00,WUHU216HW,2013-03-30 17:19:00,
2013-03-30 10:24:00,78.7,20.9,27.42,ENE,68,0.2,2.0,12,0.00,,,0.00,WUHU216HW,2013-03-30 17:24:00,
2013-03-30 10:29:00,79.4,21.4,27.42,ENE,68,0.7,1.8,12,0.00,,,0.00,WUHU216HW,2013-03-30 17:29:00,
2013-03-30 10:34:00,79.7,21.7,27.42,ESE,113,0.4,1.8,12,0.00,,,0.00,WUHU216HW,2013-03-30 17:34:00,
2013-03-30 10:39:00,80.1,18.6,27.42,NNW,338,0.4,1.8,10,0.00,,,0.00,WUHU216HW,2013-03-30 17:39:00,
2013-03-30 10:44:00,79.6,19.9,27.42,WNW,293,0.9,1.8,11,0.00,,,0.00,WUHU216HW,2013-03-30 17:44:00,
2013-03-30 10:49:00,80.1,20.4,27.42,ESE,113,1.1,1.8,11,0.00,,,0.00,WUHU216HW,2013-03-30 17:49:00,
2013-03-30 10:54:00,80.6,20.8,27.41,South,180,1.1,2.5,11,0.00,,,0.00,WUHU216HW,2013-03-30 17:54:00,
2013-03-30 10:59:00,80.6,20.8,27.41,South,180,1.6,3.4,11,0.00,,,0.00,WUHU216HW,2013-03-30 17:59:00,
2013-03-30 11:04:00,80.5,20.6,27.42,East,90,1.3,3.4,11,0.00,,,0.00,WUHU216HW,2013-03-30 18:04:00,
2013-03-30 11:09:00,80.3,20.5,27.41,SE,135,0.0,2.9,11,0.00,,,0.00,WUHU216HW,2013-03-30 18:09:00,
2013-03-30 11:14:00,80.8,20.9,27.41,ESE,113,2.0,2.5,11,0.00,,,0.00,WUHU216HW,2013-03-30 18:14:00,
2013-03-30 11:19:00,81.0,19.4,27.41,SW,225,1.3,2.9,10,0.00,,,0.00,WUHU216HW,2013-03-30 18:19:00,
2013-03-30 11:24:00,81.5,19.8,27.41,SSE,158,1.1,2.9,10,0.00,,,0.00,WUHU216HW,2013-03-30 18:24:00,
2013-03-30 11:29:00,81.7,20.0,27.41,East,90,1.6,4.0,10,0.00,,,0.00,WUHU216HW,2013-03-30 18:29:00,
2013-03-30 11:34:00,82.1,20.3,27.41,ESE,113,1.3,4.0,10,0.00,,,0.00,WUHU216HW,2013-03-30 18:34:00,
2013-03-30 11:39:00,82.3,20.3,27.41,SE,135,0.4,2.7,10,0.00,,,0.00,WUHU216HW,2013-03-30 18:39:00,
2013-03-30 11:44:00,82.4,20.5,27.41,SSW,203,0.9,3.1,10,0.00,,,0.00,WUHU216HW,2013-03-30 18:44:00,
2013-03-30 11:49:00,82.8,20.8,27.41,East,90,1.1,3.6,10,0.00,,,0.00,WUHU216HW,2013-03-30 18:49:00,
2013-03-30 11:54:00,83.2,21.1,27.41,SE,135,1.6,4.7,10,0.00,,,0.00,WUHU216HW,2013-03-30 18:54:00,
2013-03-30 11:59:00,83.2,21.1,27.41,ESE,113,2.5,4.7,10,0.00,,,0.00,WUHU216HW,2013-03-30 18:59:00,
2013-03-30 12:04:00,83.5,21.2,27.40,ENE,68,0.2,2.7,10,0.00,,,0.00,WUHU216HW,2013-03-30 19:04:00,
2013-03-30 12:09:00,83.9,21.5,27.40,SSE,158,1.1,3.6,10,0.00,,,0.00,WUHU216HW,2013-03-30 19:09:00,
2013-03-30 12:14:00,84.4,22.0,27.40,WSW,248,4.3,4.3,8,0.00,,,0.00,WUHU216HW,2013-03-30 19:14:00,
2013-03-30 12:19:00,84.6,22.1,27.40,SE,135,0.4,4.3,8,0.00,,,0.00,WUHU216HW,2013-03-30 19:19:00,
2013-03-30 12:24:00,84.6,22.1,27.40,NW,315,1.1,5.1,8,0.00,,,0.00,WUHU216HW,2013-03-30 19:24:00,
2013-03-30 12:29:00,84.8,22.2,27.39,NNW,338,1.1,5.1,8,0.00,,,0.00,WUHU216HW,2013-03-30 19:29:00,
2013-03-30 12:34:00,85.3,22.7,27.39,WSW,248,1.1,4.0,8,0.00,,,0.00,WUHU216HW,2013-03-30 19:34:00,
2013-03-30 12:39:00,85.0,22.3,27.39,WSW,248,2.5,4.5,8,0.00,,,0.00,WUHU216HW,2013-03-30 19:39:00,
2013-03-30 12:44:00,84.6,22.1,27.38,SW,225,2.9,4.5,8,0.00,,,0.00,WUHU216HW,2013-03-30 19:44:00,
2013-03-30 12:49:00,83.9,21.5,27.38,WSW,248,3.1,4.5,8,0.00,,,0.00,WUHU216HW,2013-03-30 19:49:00,
2013-03-30 12:54:00,83.5,21.2,27.38,SW,225,2.7,4.5,9,0.00,,,0.00,WUHU216HW,2013-03-30 19:54:00,
2013-03-30 12:59:00,83.0,20.9,27.38,NW,315,2.7,4.5,8,0.00,,,0.00,WUHU216HW,2013-03-30 19:59:00,
2013-03-30 13:04:00,82.8,20.8,27.38,WSW,248,0.4,4.5,10,0.00,,,0.00,WUHU216HW,2013-03-30 20:04:00,
2013-03-30 13:09:00,82.4,20.5,27.38,WNW,293,1.8,2.9,10,0.00,,,0.00,WUHU216HW,2013-03-30 20:09:00,
2013-03-30 13:14:00,82.1,20.3,27.37,WSW,248,0.9,3.4,10,0.00,,,0.00,WUHU216HW,2013-03-30 20:14:00,
2013-03-30 13:19:00,82.4,20.5,27.38,SW,225,1.8,3.4,10,0.00,,,0.00,WUHU216HW,2013-03-30 20:19:00,
2013-03-30 13:24:00,82.4,20.5,27.38,WNW,293,2.0,4.0,10,0.00,,,0.00,WUHU216HW,2013-03-30 20:24:00,
2013-03-30 13:29:00,82.8,20.8,27.38,WSW,248,1.8,4.0,10,0.00,,,0.00,WUHU216HW,2013-03-30 20:29:00,
2013-03-30 13:34:00,83.0,20.9,27.37,NNE,23,2.2,4.0,10,0.00,,,0.00,WUHU216HW,2013-03-30 20:34:00,
2013-03-30 13:39:00,83.0,20.9,27.37,West,270,2.9,4.5,10,0.00,,,0.00,WUHU216HW,2013-03-30 20:39:00,
2013-03-30 13:44:00,83.2,21.1,27.37,NW,315,2.0,4.5,10,0.00,,,0.00,WUHU216HW,2013-03-30 20:44:00,
2013-03-30 13:49:00,83.9,21.5,27.37,North,0,1.1,5.1,10,0.00,,,0.00,WUHU216HW,2013-03-30 20:49:00,
2013-03-30 13:54:00,83.9,21.5,27.37,West,270,1.1,5.1,10,0.00,,,0.00,WUHU216HW,2013-03-30 20:54:00,
2013-03-30 13:59:00,84.4,22.0,27.37,West,270,1.8,4.7,9,0.00,,,0.00,WUHU216HW,2013-03-30 20:59:00,
2013-03-30 14:04:00,84.6,22.1,27.37,NW,315,2.5,4.7,10,0.00,,,0.00,WUHU216HW,2013-03-30 21:04:00,
2013-03-30 14:09:00,84.6,22.1,27.37,West,270,3.4,4.7,8,0.00,,,0.00,WUHU216HW,2013-03-30 21:09:00,
2013-03-30 14:14:00,84.6,22.1,27.36,NW,315,1.1,4.7,8,0.00,,,0.00,WUHU216HW,2013-03-30 21:14:00,
2013-03-30 14:19:00,85.0,22.3,27.36,NW,315,1.8,4.0,9,0.00,,,0.00,WUHU216HW,2013-03-30 21:19:00,
2013-03-30 14:24:00,84.8,22.2,27.35,NW,315,2.5,4.0,9,0.00,,,0.00,WUHU216HW,2013-03-30 21:24:00,
2013-03-30 14:29:00,85.1,22.5,27.35,SSE,158,3.1,4.7,9,0.00,,,0.00,WUHU216HW,2013-03-30 21:29:00,
2013-03-30 14:34:00,84.6,22.1,27.35,WNW,293,1.8,4.7,10,0.00,,,0.00,WUHU216HW,2013-03-30 21:34:00,
2013-03-30 14:39:00,84.6,22.1,27.35,WNW,293,5.1,6.3,8,0.00,,,0.00,WUHU216HW,2013-03-30 21:39:00,
2013-03-30 14:44:00,84.2,21.8,27.35,SW,225,1.1,6.3,8,0.00,,,0.00,WUHU216HW,2013-03-30 21:44:00,
2013-03-30 14:49:00,83.9,21.5,27.35,West,270,4.9,5.4,10,0.00,,,0.00,WUHU216HW,2013-03-30 21:49:00,
2013-03-30 14:54:00,83.3,21.2,27.35,NNW,338,2.5,5.4,10,0.00,,,0.00,WUHU216HW,2013-03-30 21:54:00,
2013-03-30 14:59:00,83.3,21.2,27.35,West,270,2.5,5.1,10,0.00,,,0.00,WUHU216HW,2013-03-30 21:59:00,
2013-03-30 15:04:00,83.5,21.2,27.35,North,0,2.2,7.4,10,0.00,,,0.00,WUHU216HW,2013-03-30 22:04:00,
2013-03-30 15:09:00,83.7,21.4,27.35,ENE,68,1.8,8.5,10,0.00,,,0.00,WUHU216HW,2013-03-30 22:09:00,
2013-03-30 15:14:00,84.2,21.8,27.34,WNW,293,2.5,8.5,10,0.00,,,0.00,WUHU216HW,2013-03-30 22:14:00,
2013-03-30 15:19:00,83.9,21.5,27.34,WNW,293,2.5,4.7,10,0.00,,,0.00,WUHU216HW,2013-03-30 22:19:00,
2013-03-30 15:24:00,83.3,22.9,27.34,WNW,293,1.8,4.9,11,0.00,,,0.00,WUHU216HW,2013-03-30 22:24:00,
2013-03-30 15:29:00,83.9,23.2,27.34,West,270,4.0,4.9,11,0.00,,,0.00,WUHU216HW,2013-03-30 22:29:00,
2013-03-30 15:34:00,83.5,23.0,27.34,WNW,293,4.5,6.0,11,0.00,,,0.00,WUHU216HW,2013-03-30 22:34:00,
2013-03-30 15:39:00,83.5,23.0,27.33,SE,135,3.8,6.0,11,0.00,,,0.00,WUHU216HW,2013-03-30 22:39:00,
2013-03-30 15:44:00,83.7,23.1,27.33,NW,315,6.3,7.4,11,0.00,,,0.00,WUHU216HW,2013-03-30 22:44:00,
2013-03-30 15:49:00,83.7,23.1,27.33,ENE,68,4.5,7.4,11,0.00,,,0.00,WUHU216HW,2013-03-30 22:49:00,
2013-03-30 15:54:00,83.5,23.0,27.33,NW,315,2.5,7.4,11,0.00,,,0.00,WUHU216HW,2013-03-30 22:54:00,
2013-03-30 15:59:00,83.5,23.0,27.33,WSW,248,4.7,7.4,11,0.00,,,0.00,WUHU216HW,2013-03-30 22:59:00,
2013-03-30 16:04:00,83.5,23.0,27.33,NNE,23,4.7,7.6,11,0.00,,,0.00,WUHU216HW,2013-03-30 23:04:00,
2013-03-30 16:09:00,83.2,22.7,27.33,WNW,293,2.9,7.6,11,0.00,,,0.00,WUHU216HW,2013-03-30 23:09:00,
2013-03-30 16:14:00,83.3,22.9,27.32,NE,45,2.0,6.9,11,0.00,,,0.00,WUHU216HW,2013-03-30 23:14:00,
2013-03-30 16:19:00,83.2,22.7,27.32,West,270,3.1,6.9,11,0.00,,,0.00,WUHU216HW,2013-03-30 23:19:00,
2013-03-30 16:24:00,83.0,22.6,27.32,West,270,3.6,8.1,11,0.00,,,0.00,WUHU216HW,2013-03-30 23:24:00,
2013-03-30 16:29:00,83.2,22.7,27.32,WNW,293,3.6,8.1,11,0.00,,,0.00,WUHU216HW,2013-03-30 23:29:00,
2013-03-30 16:34:00,83.2,22.7,27.31,WNW,293,0.4,4.9,11,0.00,,,0.00,WUHU216HW,2013-03-30 23:34:00,
2013-03-30 16:39:00,83.9,23.2,27.31,SSW,203,3.4,5.1,11,0.00,,,0.00,WUHU216HW,2013-03-30 23:39:00,
2013-03-30 16:44:00,83.3,22.9,27.31,NW,315,2.0,5.1,11,0.00,,,0.00,WUHU216HW,2013-03-30 23:44:00,
2013-03-30 16:49:00,83.2,22.7,27.32,WNW,293,3.4,5.1,11,0.00,,,0.00,WUHU216HW,2013-03-30 23:49:00,
2013-03-30 16:54:00,82.6,24.0,27.32,West,270,3.1,4.7,12,0.00,,,0.00,WUHU216HW,2013-03-30 23:54:00,
2013-03-30 16:59:00,82.4,24.0,27.32,WNW,293,1.8,4.7,12,0.00,,,0.00,WUHU216HW,2013-03-30 23:59:00,
2013-03-30 17:04:00,82.4,24.0,27.31,NW,315,3.1,4.7,12,0.00,,,0.00,WUHU216HW,2013-03-31 00:04:00,
2013-03-30 17:09:00,81.7,23.3,27.32,West,270,2.5,4.7,12,0.00,,,0.00,WUHU216HW,2013-03-31 00:09:00,
2013-03-30 17:14:00,81.5,23.2,27.32,NW,315,2.0,4.3,12,0.00,,,0.00,WUHU216HW,2013-03-31 00:14:00,
2013-03-30 17:19:00,81.4,23.0,27.32,NW,315,2.0,3.8,12,0.00,,,0.00,WUHU216HW,2013-03-31 00:19:00,
2013-03-30 17:24:00,81.0,22.8,27.31,SSW,203,1.1,3.4,12,0.00,,,0.00,WUHU216HW,2013-03-31 00:24:00,
2013-03-30 17:29:00,80.8,22.6,27.31,WNW,293,3.4,3.4,12,0.00,,,0.00,WUHU216HW,2013-03-31 00:29:00,
2013-03-30 17:34:00,80.5,24.0,27.31,NW,315,1.8,3.4,13,0.00,,,0.00,WUHU216HW,2013-03-31 00:34:00,
2013-03-30 17:39:00,80.3,23.9,27.31,NW,315,2.5,3.4,13,0.00,,,0.00,WUHU216HW,2013-03-31 00:39:00,
2013-03-30 17:44:00,80.3,23.9,27.31,West,270,2.0,3.4,13,0.00,,,0.00,WUHU216HW,2013-03-31 00:44:00,
2013-03-30 17:49:00,80.3,25.6,27.31,WNW,293,2.9,3.4,14,0.00,,,0.00,WUHU216HW,2013-03-31 00:49:00,
2013-03-30 17:54:00,80.3,23.9,27.31,WSW,248,2.2,4.5,13,0.00,,,0.00,WUHU216HW,2013-03-31 00:54:00,
2013-03-30 17:59:00,79.9,26.9,27.32,NNE,23,5.4,5.6,15,0.00,,,0.00,WUHU216HW,2013-03-31 00:59:00,
2013-03-30 18:04:00,79.7,23.4,27.32,NW,315,1.3,5.6,13,0.00,,,0.00,WUHU216HW,2013-03-31 01:04:00,
2013-03-30 18:09:00,79.6,24.9,27.32,WSW,248,1.8,5.4,14,0.00,,,0.00,WUHU216HW,2013-03-31 01:09:00,
2013-03-30 18:14:00,79.2,26.3,27.32,NW,315,2.9,4.9,15,0.00,,,0.00,WUHU216HW,2013-03-31 01:14:00,
2013-03-30 18:19:00,78.8,26.0,27.32,West,270,3.8,4.9,15,0.00,,,0.00,WUHU216HW,2013-03-31 01:19:00,
2013-03-30 18:24:00,78.5,25.7,27.32,WSW,248,2.2,3.8,15,0.00,,,0.00,WUHU216HW,2013-03-31 01:24:00,
2013-03-30 18:29:00,78.1,25.5,27.32,WSW,248,1.3,3.8,15,0.00,,,0.00,WUHU216HW,2013-03-31 01:29:00,
2013-03-30 18:34:00,77.8,26.8,27.32,WSW,248,5.4,8.5,16,0.00,,,0.00,WUHU216HW,2013-03-31 01:34:00,
2013-03-30 18:39:00,76.9,29.5,27.32,NE,45,4.0,8.5,18,0.00,,,0.00,WUHU216HW,2013-03-31 01:39:00,
2013-03-30 18:44:00,76.0,28.8,27.32,NW,315,4.3,8.5,18,0.00,,,0.00,WUHU216HW,2013-03-31 01:44:00,
2013-03-30 18:49:00,75.6,28.4,27.33,NW,315,4.3,6.3,18,0.00,,,0.00,WUHU216HW,2013-03-31 01:49:00,
2013-03-30 18:54:00,75.2,29.9,27.33,WNW,293,4.9,7.2,19,0.00,,,0.00,WUHU216HW,2013-03-31 01:54:00,
2013-03-30 18:59:00,75.1,28.1,27.33,NE,45,5.4,7.2,18,0.00,,,0.00,WUHU216HW,2013-03-31 01:59:00,
2013-03-30 19:04:00,74.7,29.4,27.33,NNE,23,3.4,5.8,19,0.00,,,0.00,WUHU216HW,2013-03-31 02:04:00,
2013-03-30 19:09:00,74.5,29.3,27.33,NNE,23,2.5,5.4,19,0.00,,,0.00,WUHU216HW,2013-03-31 02:09:00,
2013-03-30 19:15:00,74.3,29.2,27.33,WSW,248,3.6,5.4,19,0.00,,,0.00,WUHU216HW,2013-03-31 02:15:00,
2013-03-30 19:20:00,74.2,29.0,27.33,WSW,248,1.8,5.4,19,0.00,,,0.00,WUHU216HW,2013-03-31 02:20:00,
2013-03-30 19:25:00,73.8,28.7,27.33,NW,315,2.0,4.9,19,0.00,,,0.00,WUHU216HW,2013-03-31 02:25:00,
2013-03-30 19:30:00,73.8,28.7,27.33,SSE,158,2.5,4.9,19,0.00,,,0.00,WUHU216HW,2013-03-31 02:30:00,
2013-03-30 19:35:00,73.4,30.1,27.34,WSW,248,2.5,4.0,20,0.00,,,0.00,WUHU216HW,2013-03-31 02:35:00,
2013-03-30 19:40:00,73.3,30.9,27.34,North,0,2.7,4.3,21,0.00,,,0.00,WUHU216HW,2013-03-31 02:40:00,
2013-03-30 19:45:00,73.1,29.7,27.34,SW,225,1.8,4.3,20,0.00,,,0.00,WUHU216HW,2013-03-31 02:45:00,
2013-03-30 19:50:00,73.1,30.8,27.33,NNW,338,2.0,4.7,21,0.00,,,0.00,WUHU216HW,2013-03-31 02:50:00,
2013-03-30 19:55:00,72.9,30.6,27.34,WNW,293,3.8,4.7,21,0.00,,,0.00,WUHU216HW,2013-03-31 02:55:00,
2013-03-30 20:00:00,72.9,30.6,27.34,NNE,23,2.5,6.3,21,0.00,,,0.00,WUHU216HW,2013-03-31 03:00:00,
2013-03-30 20:05:00,72.9,30.6,27.34,ESE,113,2.5,6.3,21,0.00,,,0.00,WUHU216HW,2013-03-31 03:05:00,
2013-03-30 20:10:00,72.9,30.6,27.35,North,0,2.5,5.6,21,0.00,,,0.00,WUHU216HW,2013-03-31 03:10:00,
2013-03-30 20:15:00,72.5,30.2,27.34,NE,45,1.6,4.5,21,0.00,,,0.00,WUHU216HW,2013-03-31 03:15:00,
2013-03-30 20:20:00,72.4,30.2,27.35,SE,135,1.1,4.5,21,0.00,,,0.00,WUHU216HW,2013-03-31 03:20:00,
2013-03-30 20:25:00,72.0,29.8,27.35,NW,315,2.2,3.4,21,0.00,,,0.00,WUHU216HW,2013-03-31 03:25:00,
2013-03-30 20:30:00,71.8,29.6,27.35,North,0,1.1,3.1,21,0.00,,,0.00,WUHU216HW,2013-03-31 03:30:00,
2013-03-30 20:35:00,71.6,29.4,27.35,WSW,248,2.5,3.4,21,0.00,,,0.00,WUHU216HW,2013-03-31 03:35:00,
2013-03-30 20:40:00,71.6,29.4,27.35,WNW,293,2.9,3.4,21,0.00,,,0.00,WUHU216HW,2013-03-31 03:40:00,
2013-03-30 20:45:00,71.5,30.3,27.35,WNW,293,3.4,3.8,22,0.00,,,0.00,WUHU216HW,2013-03-31 03:45:00,
2013-03-30 20:50:00,71.3,30.3,27.35,WNW,293,2.5,4.0,22,0.00,,,0.00,WUHU216HW,2013-03-31 03:50:00,
2013-03-30 20:55:00,71.3,30.3,27.35,WNW,293,1.1,4.0,22,0.00,,,0.00,WUHU216HW,2013-03-31 03:55:00,
2013-03-30 21:00:00,70.9,29.9,27.35,WNW,293,3.1,3.1,22,0.00,,,0.00,WUHU216HW,2013-03-31 04:00:00,
2013-03-30 21:05:00,70.9,29.9,27.35,WNW,293,1.6,3.1,22,0.00,,,0.00,WUHU216HW,2013-03-31 04:05:00,
2013-03-30 21:10:00,70.7,29.8,27.36,West,270,0.9,3.1,22,0.00,,,0.00,WUHU216HW,2013-03-31 04:10:00,
2013-03-30 21:15:00,70.6,29.6,27.36,NW,315,1.8,2.9,22,0.00,,,0.00,WUHU216HW,2013-03-31 04:15:00,
2013-03-30 21:20:00,70.2,29.4,27.36,NW,315,0.9,2.7,22,0.00,,,0.00,WUHU216HW,2013-03-31 04:20:00,
2013-03-30 21:25:00,70.2,29.4,27.36,West,270,1.1,2.2,22,0.00,,,0.00,WUHU216HW,2013-03-31 04:25:00,
2013-03-30 21:30:00,70.0,29.2,27.36,WNW,293,0.7,2.2,22,0.00,,,0.00,WUHU216HW,2013-03-31 04:30:00,
2013-03-30 21:35:00,69.7,28.9,27.36,NNW,338,1.3,2.0,22,0.00,,,0.00,WUHU216HW,2013-03-31 04:35:00,
2013-03-30 21:40:00,69.5,29.7,27.36,SW,225,1.1,2.5,23,0.00,,,0.00,WUHU216HW,2013-03-31 04:40:00,
2013-03-30 21:45:00,69.3,29.6,27.36,West,270,1.6,2.5,23,0.00,,,0.00,WUHU216HW,2013-03-31 04:45:00,
2013-03-30 21:50:00,69.3,29.6,27.36,WNW,293,1.8,2.2,23,0.00,,,0.00,WUHU216HW,2013-03-31 04:50:00,
2013-03-30 21:55:00,69.1,29.4,27.36,NW,315,0.4,2.0,23,0.00,,,0.00,WUHU216HW,2013-03-31 04:55:00,
2013-03-30 22:00:00,69.1,29.4,27.36,WNW,293,1.6,2.0,23,0.00,,,0.00,WUHU216HW,2013-03-31 05:00:00,
2013-03-30 22:05:00,68.6,29.0,27.36,WSW,248,0.0,1.8,23,0.00,,,0.00,WUHU216HW,2013-03-31 05:05:00,
2013-03-30 22:10:00,68.0,28.5,27.37,WSW,248,0.0,1.6,23,0.00,,,0.00,WUHU216HW,2013-03-31 05:10:00,
2013-03-30 22:15:00,67.7,28.3,27.37,SSW,203,0.0,0.2,23,0.00,,,0.00,WUHU216HW,2013-03-31 05:15:00,
2013-03-30 22:20:00,67.3,27.9,27.37,SW,225,1.3,1.3,23,0.00,,,0.00,WUHU216HW,2013-03-31 05:20:00,
2013-03-30 22:25:00,67.0,27.6,27.37,SE,135,1.8,1.8,23,0.00,,,0.00,WUHU216HW,2013-03-31 05:25:00,
2013-03-30 22:30:00,66.8,27.5,27.37,ESE,113,0.9,2.0,23,0.00,,,0.00,WUHU216HW,2013-03-31 05:30:00,
2013-03-30 22:35:00,66.4,27.1,27.37,ESE,113,0.0,2.0,23,0.00,,,0.00,WUHU216HW,2013-03-31 05:35:00,
2013-03-30 22:40:00,66.2,28.0,27.37,SSW,203,0.4,1.6,24,0.00,,,0.00,WUHU216HW,2013-03-31 05:40:00,
2013-03-30 22:45:00,66.2,28.0,27.37,South,180,0.4,1.6,24,0.00,,,0.00,WUHU216HW,2013-03-31 05:45:00,
2013-03-30 22:50:00,66.2,28.0,27.37,SSW,203,0.0,1.3,24,0.00,,,0.00,WUHU216HW,2013-03-31 05:50:00,
2013-03-30 22:55:00,65.9,27.6,27.37,SW,225,0.9,1.3,24,0.00,,,0.00,WUHU216HW,2013-03-31 05:55:00,
2013-03-30 23:00:00,65.9,27.6,27.37,SSE,158,0.2,1.3,24,0.00,,,0.00,WUHU216HW,2013-03-31 06:00:00,
2013-03-30 23:05:00,65.5,27.4,27.37,ESE,113,0.4,1.1,24,0.00,,,0.00,WUHU216HW,2013-03-31 06:05:00,
2013-03-30 23:10:00,65.3,27.2,27.37,WSW,248,0.4,1.1,24,0.00,,,0.00,WUHU216HW,2013-03-31 06:10:00,
2013-03-30 23:15:00,65.2,27.1,27.37,SSE,158,0.4,1.1,24,0.00,,,0.00,WUHU216HW,2013-03-31 06:15:00,
2013-03-30 23:20:00,65.0,26.9,27.37,South,180,0.4,1.1,24,0.00,,,0.00,WUHU216HW,2013-03-31 06:20:00,
2013-03-30 23:25:00,64.6,26.7,27.37,SE,135,0.0,1.1,24,0.00,,,0.00,WUHU216HW,2013-03-31 06:25:00,
2013-03-30 23:30:00,64.4,26.5,27.37,ESE,113,0.0,0.7,24,0.00,,,0.00,WUHU216HW,2013-03-31 06:30:00,
2013-03-30 23:35:00,64.1,27.2,27.37,ESE,113,0.7,1.1,25,0.00,,,0.00,WUHU216HW,2013-03-31 06:35:00,
2013-03-30 23:40:00,63.9,27.0,27.37,ESE,113,0.4,1.1,25,0.00,,,0.00,WUHU216HW,2013-03-31 06:40:00,
2013-03-30 23:45:00,63.5,26.7,27.37,East,90,1.1,1.1,25,0.00,,,0.00,WUHU216HW,2013-03-31 06:45:00,
2013-03-30 23:50:00,63.4,26.6,27.37,SE,135,0.7,1.3,25,0.00,,,0.00,WUHU216HW,2013-03-31 06:50:00,
2013-03-30 23:55:00,63.2,26.4,27.37,ESE,113,0.9,1.8,25,0.00,,,0.00,WUHU216HW,2013-03-31 06:55:00,